Tracking 31027 objects as of 18-Jul-2025
HD Live streaming from Space Station
objects crossing your sky now

ORBCOMM FM 111

Track ORBCOMM FM 111 now!
10-day predictions
ORBCOMM FM 111 is classified as:


NORAD ID: 40089
Int'l Code: 2014-040D
Perigee: 594.8 km
Apogee: 637.8 km
Inclination: 47.0 °
Period: 96.9 minutes
Semi major axis: 6987 km
RCS: Unknown
Launch date: July 14, 2014
Source: United States (US)
Launch site: AIR FORCE EASTERN TEST RANGE (AFETR)
Your satellite tracking list
Your tracking list is empty




NASA's NSSDC Master Catalog

Two Line Element Set (TLE):
1 40089U 14040D   25199.54214618  .00001193  00000-0  15735-3 0  9995
2 40089  47.0017 254.6825 0030768 340.4486  19.5229 14.86414846594896
Source of the keplerian elements: AFSPC